Uncategorized

2021 Ratings: Early Season Warrior

Boys Adjustment: -58
Girls Adjustment: -66

GradeNameTimeTeamRating
12Sarah Storey19:37.3Remus Chippewa Hills149.6
12Whitney Farrell19:55.9Freeland143.4
12Mara Longenecker20:14.0Freeland137.3
12Libby Munderloh20:29.4St. Louis132.2
9Ashley Choponis21:05.1Stanton Central Montcalm120.3
12Kiera Hansen21:11.3Freeland118.2
12Mikenna Borie21:20.2St. Louis115.3
10Kinsie Jacques21:21.1Pinconning115.0
10Gwendalynn Rickard21:23.2Big Rapids114.3
11Larissa McGrath21:28.9Cedar Springs112.4
9Landrey Kuhn21:37.0Freeland109.7
9Kyah Hoffman21:53.3Stanton Central Montcalm104.2
10Annalise Elliott21:58.4Cedar Springs102.5
10Jaiden Dickman21:59.5St. Louis102.2
12Ally Ladd22:01.0Cedar Springs101.7
11Nora Smoes22:01.4Reed City101.5
11Ariel Warner22:05.8Shepherd100.1
11Jolie Fisher22:06.7Shepherd99.8
9Allison Nobis22:24.5Clare93.8
12Nicole Olivieri22:26.2Mt. Pleasant Sacred Heart93.3
11Kaylee Locke22:28.5Beal City92.5
10Ava Hollandsworth22:34.0Remus Chippewa Hills90.7
12Kate Langworthy22:39.3Big Rapids88.9
12Allyson Harvey22:40.5Freeland88.5
12Carly Judge22:46.8Shepherd86.4
12Abby Leigh22:49.0Clare85.7
12Riley Hacker22:52.4Mt. Pleasant Sacred Heart84.5
12Tea Hoffman22:54.9Stanton Central Montcalm83.7
9Gracie Warner22:55.1Shepherd83.6
12Sofiah Coker23:06.3Clare79.9
10Paige Kloha23:07.6Freeland79.5
10Bella Reed23:08.6Freeland79.1
11Olivia Ervin23:11.7Mt. Pleasant Sacred Heart78.1
12Rachal Weber23:14.5Beal City77.2
9Jenna Kowalski23:18.7Freeland75.8
9Carly Carlson23:25.1Reed City73.6
12Lilly Bailey23:27.8Shepherd72.7
11Laney Pestrue23:32.1St. Louis71.3
11Hadyn Armstrong23:50.6Beal City65.1
12Paige Lofquist23:50.9Reed City65.0
11Carley Lynch23:51.8Shepherd64.7
11Jenna Abell23:54.0St. Louis64.0
11Lily Deja24:01.7Mt. Pleasant Sacred Heart61.4
11Kaylee Aultman24:09.6Coleman58.8
10Oliviah Malloy24:11.3Big Rapids58.2
10Madison Gimmey24:12.6Shepherd57.8
10Reece Clark24:12.9Remus Chippewa Hills57.7
10Haylee Livermore24:13.5Remus Chippewa Hills57.5
11Molly Bentley24:20.9Cedar Springs55.0
9Taylor Seibt24:23.5Clare54.2
12Abby Spencer24:30.5Mt. Pleasant Sacred Heart51.8
11Payton Kuhn24:33.9St. Louis50.7
12Zoey Deam24:42.2Big Rapids47.9
12Paige Walters24:43.6Shepherd47.5
12Allie Boyd24:53.6Clare44.1
11Ainsley Miller25:04.7Freeland40.4
12Allison Wichert25:05.2Vestaburg40.3
12Isabel VanDusen25:06.2Cedar Springs39.9
12Emma Seemann25:07.3Freeland39.6
12Katie McDonald25:08.0Mt. Pleasant Sacred Heart39.3
9Chelsea Lynch25:11.8Mt. Pleasant Sacred Heart38.1
11Sadie Quackenbush25:12.9Montabella37.7
11Haylie Haner25:16.8Big Rapids36.4
10Megan Veitengruber25:19.9Clare35.4
9Clara Smoes25:20.5Reed City35.2
10Kaitlynn Brown25:21.1Cedar Springs35.0
9Layla Addis25:22.5Vestaburg34.5
10Monika Borie25:22.9St. Louis34.4
10Addyson Brown25:24.4Cedar Springs33.9
12Alyssa Graham25:30.4Freeland31.9
9Jessica Penrod25:34.0Vestaburg30.7
12Kaitriss Degroft25:34.9Remus Chippewa Hills30.4
9Cady Muraida25:36.1Grayling30.0
10Bailey Seibt25:36.8Clare29.7
9Abby Dice25:38.0St. Louis29.3
12Rainey Schreiber25:44.1Remus Chippewa Hills27.3
9Lauryn Licari25:47.7Beal City26.1
11Simone Kaechele25:52.4Clare24.5
10Haylie Terrien26:20.7Cedar Springs15.1
9Augusta Bowman26:21.0Remus Chippewa Hills15.0
11Ellie Sickles26:26.6Shepherd13.1
9Olivia Duba26:34.4Grayling10.6
12Hailey Petersen26:34.7Stanton Central Montcalm10.4
11Amanda Sanchez26:39.8Freeland8.7
11Sophia Rakoczy26:47.2Grayling6.3
10Natalie Lemert26:51.3St. Louis4.9
10Kara Forsberg26:54.4Clare3.9
11Lilly Backus27:02.0Beal City1.3
11Olivia Middleton27:04.8Mt. Pleasant Sacred Heart0.4

GradeNameTimeTeamRating
11Braydon Honsinger17:04.9Freeland197.7
9TJ Hansen17:10.4Freeland195.9
12Jacob Wurtzel17:13.9Freeland194.7
12Brock Lynch17:21.3Mt. Pleasant Sacred Heart192.2
12Ryan Ososki17:26.6Big Rapids190.5
11Braden Klein17:46.0Freeland184.0
11Jake O’Neil17:48.5Remus Chippewa Hills183.2
11Andrew Hardy17:58.0Stanton Central Montcalm180.0
10Brad White18:10.3Clare175.9
12Aaron Bowerman18:15.1St. Louis174.3
10Drew Moore18:15.7Grayling174.1
11Dakota Dykhuis18:20.6Montabella172.5
11Espen Wood18:32.9Cedar Springs168.4
10Ben March18:36.5St. Louis167.2
10Ryan Allen18:37.0Reed City167.0
12Carter Moleski18:37.9Cedar Springs166.7
9Camden McLeod18:41.5Freeland165.5
11Owen Gross18:42.3Beal City165.2
10Anthony Kiaunis18:44.8Reed City164.4
10Owen Patton18:50.4Vestaburg162.5
12Noah Haskell18:51.9Coleman162.0
10Graham Coston18:59.2Stanton Central Montcalm159.6
11Dylan Marr19:05.2St. Louis157.6
12Gabe White19:05.6Cedar Springs157.5
11Thomas Zacharko19:06.7St. Louis157.1
10Andrew Klaus19:13.0Clare155.0
11Eli Malon19:16.5Cedar Springs153.8
12Mason Cross19:18.0Shepherd153.3
12Nate March19:19.0St. Louis153.0
12Gabe Minnich19:23.0Cedar Springs151.7
11Nico Lopez19:23.5Shepherd151.5
10Nic Porter19:26.7Clare150.4
10Izaiah Lentz19:27.9Reed City150.0
12Cohen Young19:29.8Clare149.4
9Colin Kuhn19:33.1St. Louis148.3
11James Wilson19:34.4Montabella147.9
9August Rohde19:36.5Reed City147.2
10Matthew Brownell19:46.7Remus Chippewa Hills143.8
10Zach Reed19:48.3Cedar Springs143.2
9Nolan Longuski19:48.7Shepherd143.1
12Alex Cole19:49.1Cedar Springs143.0
9Landon Pestrue19:50.3St. Louis142.6
10Nik Moore20:01.2Mt. Pleasant Sacred Heart138.9
12Ted Bell20:10.5Clare135.8
10Jack Sherburn20:16.7Cedar Springs133.8
12Alex Deeter20:22.4Freeland131.9
12Craig Bebow20:24.9St. Louis131.0
11Ty Kailing20:25.9Reed City130.7
10Elijah Lentz20:30.6Reed City129.1
12Shaun Biller20:39.6Remus Chippewa Hills126.1
9Ayden Barcia20:44.3Clare124.6
12Cayden Steinebach20:44.8Cedar Springs124.4
10Eli Kleynenberg20:45.1Cedar Springs124.3
10Joel Hardesty20:57.1Big Rapids120.3
9Quinton Bell21:10.7Cedar Springs115.8
9Jacob Bowermaster21:15.5Harrison114.2
11Jesse Jones21:20.2Mt. Pleasant Sacred Heart112.6
12Adam Deeter21:21.9Freeland112.0
9Grant Smith21:29.7Shepherd109.4
11Mason Dozier21:37.3Reed City106.9
11Hayden Wood21:44.7Clare104.4
9Caidan Gaskill21:48.7Clare103.1
12Will Erickson21:54.1St. Louis101.3
9Jack Seemann21:56.4Freeland100.5
11Cole Aultman21:59.7Coleman99.4
12Alex Baxter22:03.2St. Louis98.3
9Sam Nemeth22:09.1Freeland96.3
12Riley Daily22:09.4Montabella96.2
10Joseph Klopf22:13.3Freeland94.9
9Joseph Likavec22:15.4Mt. Pleasant Sacred Heart94.2
9Evan Brown22:19.2Freeland92.9
12Trevor Rakoczy22:21.0Grayling92.3
11Bryce Aultman22:30.2Coleman89.3
12Clay Oosterhouse22:31.0Big Rapids89.0
12Walker Aldrich22:41.1St. Louis85.6
12Gavin Grabill22:49.1Big Rapids83.0
9Austin Dalman22:50.0Big Rapids82.7
12Logan Mishler22:52.0Beal City82.0
9Kyan Deam22:52.5Big Rapids81.8
9Xavier Hoppe22:56.0Shepherd80.7
10Josiah Curry22:58.7Stanton Central Montcalm79.8
9Isaiah Mulheron23:00.9Clare79.0
10Victor Krueger23:01.5Harrison78.9
12Hunter Mossel23:06.2Big Rapids77.3
12Martin Grinnell23:13.3Remus Chippewa Hills74.9
9Owen Brickner23:14.9Shepherd74.4
12Nathan Huss23:18.2Reed City73.3
9Logan Dudley23:26.8Coleman70.4
9Jayden Ulberg23:37.1Cedar Springs67.0
9Hayden Gould23:41.8Big Rapids65.4
11Charlie Hicks23:45.3Clare64.2
11Chris Tallman23:56.2Coleman60.6
9Austin Gross23:58.7Beal City59.8
11Fox Marculewicz24:02.7Grayling58.4
12Shane Templeman24:03.7Coleman58.1
10Brady Morrow24:10.2Cedar Springs55.9
12Hunter Salladay24:16.7St. Louis53.8
12Demetrius Alspaugh24:23.8St. Louis51.4
11Jonathan Reed24:47.4Cedar Springs43.5
9Eli Zeien24:58.7Beal City39.8
9Caleb VanSickle25:29.4Cedar Springs29.5
12Trenton Barone25:58.6Big Rapids19.8
11Carson Parks26:00.3Pinconning19.2
10Noah Graham26:09.2Freeland16.3
9Nash Davidson26:09.7Freeland16.1
10Brady Mccadie26:19.9Hale12.7
10Noah Gola26:20.8Shepherd12.4
9Anderson Oberle26:24.9Freeland11.0
9Logan Means26:46.8Shepherd3.7
12Alexander Cole26:48.5Grayling3.2

Leave a Reply

Fill in your details below or click an icon to log in:

WordPress.com Logo

You are commenting using your WordPress.com account. Log Out /  Change )

Google photo

You are commenting using your Google account. Log Out /  Change )

Twitter picture

You are commenting using your Twitter account. Log Out /  Change )

Facebook photo

You are commenting using your Facebook account. Log Out /  Change )

Connecting to %s